Estevan,

7:20 AM CST on May 24, 2017 (GMT -0600)
Estevan

Weather History for CYEN - May, 2013

Change the Weather History Date:

Friday, May 24, 2013

  Actual Average Record
Temperature  
Mean Temperature 54 °F -  
Max Temperature 57 °F 73 °F 88 °F (2014)
Min Temperature 51 °F 48 °F 28 °F (2002)
Degree Days  
Heating Degree Days 11    
Growing Degree Days 4 (Base 50)    
Moisture  
Dew Point 46 °F    
Average Humidity 75    
Maximum Humidity 100    
Minimum Humidity 45    
Precipitation  
Precipitation 0.00 in 0.08 in - ()
Sea Level Pressure  
Sea Level Pressure 30.03 in    
Wind  
Wind Speed 15 mph ()    
Max Wind Speed 23 mph    
Max Gust Speed 34 mph    
Visibility 14.2 miles    
Events Rain    
Averages and records for this station are not official NWS values.
T = Trace of Precipitation, MM = Missing Value Source: Averaged Metar Reports

Daily Weather History Graph

Daily Weather History Graph

Search for Another Location

Airport or City:

Trip Planner

Search our weather history database for the weather conditions in past years. The results will help you decide how hot, cold, wet, or windy it might be!

Date:

Astronomy

May. 24, 2013 Rise Set
Actual Time 4:57 AM CST 8:40 PM CST
Civil Twilight 4:17 AM CST 9:20 PM CST
Nautical Twilight 3:23 AM CST 10:15 PM CST
Astronomical Twilight 2:03 AM CST 11:36 PM CST
Moon 8:22 PM CST 4:36 AM CST
Length of Visible Light 17h 03m
Length of Day
15h 42m
Full, 100% of the Moon is Illuminated
May 24
Full
May 24
Full
May 31
Last Quarter
Jun 8
New
Jun 16
First Quarter

Hourly Weather History & Observations

Time (CST) Temp. Dew Point Humidity Pressure Visibility Wind Dir Wind Speed Gust Speed Precip Events Conditions
12:00 AM 54 °F 39 °F 45% 30.14 in 15 mi East 17.3 mph - -   Overcast
12:00 AM 53.6 °F 39.2 °F 58% 30.14 in 15.0 mi East 17.3 mph 25.3 mph N/A   Overcast
1:00 AM 53.6 °F 39.2 °F 58% 30.14 in 15.0 mi East 18.4 mph - N/A   Overcast
2:00 AM 51.8 °F 39.2 °F 62% 30.12 in 15.0 mi ESE 18.4 mph - N/A   Overcast
3:00 AM 51.8 °F 41.0 °F 67% 30.08 in 15.0 mi ESE 17.3 mph - N/A   Overcast
4:00 AM 51.8 °F 41.0 °F 67% 30.07 in 15.0 mi East 12.7 mph - N/A   Overcast
5:00 AM 51.8 °F 42.8 °F 71% 30.05 in 15.0 mi ESE 17.3 mph - N/A   Overcast
6:00 AM 52 °F 44 °F 67% 30.03 in 15 mi ESE 15.0 mph - -   Mostly Cloudy
6:00 AM 51.8 °F 44.6 °F 76% 30.03 in 15.0 mi ESE 15.0 mph - N/A   Mostly Cloudy
7:00 AM 53.6 °F 44.6 °F 72% 30.01 in 15.0 mi ESE 17.3 mph - N/A   Overcast
8:00 AM 55.4 °F 42.8 °F 63% 29.99 in 15.0 mi ESE 17.3 mph 26.5 mph N/A   Overcast
9:00 AM 55.4 °F 41.0 °F 58% 29.98 in 15.0 mi ESE 19.6 mph 33.4 mph N/A   Overcast
10:00 AM 57.2 °F 42.8 °F 59% 29.97 in 15.0 mi ESE 20.7 mph 34.5 mph N/A   Overcast
11:00 AM 57.2 °F 42.8 °F 59% 29.95 in 15.0 mi ESE 20.7 mph 31.1 mph N/A   Overcast
12:00 PM 55 °F 46 °F 64% 29.99 in 15 mi SSE 23.0 mph - -   Overcast
12:00 PM 55.4 °F 46.4 °F 72% 29.99 in 15.0 mi SSE 23.0 mph 32.2 mph N/A   Overcast
12:39 PM - - N/A% - 8.0 mi SE 18.4 mph 27.6 mph N/A Rain Light Rain
1:00 PM 53.6 °F 48.2 °F 82% 29.99 in 10.0 mi SE 20.7 mph 29.9 mph N/A Rain Light Rain
2:00 PM 51.8 °F 50.0 °F 94% 30.00 in 15.0 mi SE 19.6 mph 25.3 mph N/A   Overcast
3:00 PM 53.6 °F 50.0 °F 88% 29.99 in 15.0 mi SE 19.6 mph 29.9 mph N/A   Overcast
3:43 PM - - N/A% - 15.0 mi ESE 16.1 mph 25.3 mph N/A   Overcast
4:00 PM 53.6 °F 50.0 °F 88% 29.99 in 15.0 mi ESE 16.1 mph 23.0 mph N/A   Overcast
5:00 PM 55.4 °F 51.8 °F 88% 30.00 in 15.0 mi ESE 13.8 mph 23.0 mph N/A   Overcast
6:00 PM 57 °F 52 °F 77% 29.99 in 15 mi ESE 13.8 mph - -   Partly Cloudy
6:00 PM 57.2 °F 51.8 °F 82% 29.99 in 15.0 mi ESE 13.8 mph 20.7 mph N/A   Mostly Cloudy
7:00 PM 55.4 °F 51.8 °F 88% 30.00 in 15.0 mi ESE 11.5 mph 17.3 mph N/A   Scattered Clouds
8:00 PM 53.6 °F 51.8 °F 94% 30.01 in 15.0 mi ESE 11.5 mph 18.4 mph N/A   Scattered Clouds
9:00 PM 51.8 °F 50.0 °F 94% 30.04 in 15.0 mi ESE 11.5 mph 17.3 mph N/A   Mostly Cloudy
10:00 PM 51.8 °F 51.8 °F 100% 30.07 in 15.0 mi ESE 10.4 mph - N/A   Mostly Cloudy
11:00 PM 51.8 °F 51.8 °F 100% 30.08 in 4.0 mi ESE 8.1 mph - N/A   Overcast